Location: Fort Worth, Tx
(32.7431°N, 97.3695°W)
Time: 12:34:25
(UTC-04:00)

AO-7 - Visible Passes

Search period start: 19 September 2020 00:00
Search period end: 29 September 2020 00:00
Orbit: 1440 x 1458 km, 101.8° (Epoch: 18 September)

Date Brightness Start Highest point End Pass type
(mag) Time Alt. Az. Time Alt. Az. Time Alt. Az.
19 Sep ? 06:03:14 10° NNE 06:11:29 64° ESE 06:19:39 10° S visible
20 Sep ? 05:04:47 10° NE 05:11:13 24° E 05:17:35 10° SSE visible
20 Sep ? 06:56:09 10° N 07:04:16 61° WNW 07:12:21 10° SW visible
21 Sep ? 05:56:18 10° NNE 06:04:27 58° ESE 06:12:32 10° S visible
21 Sep ? 07:49:58 10° N 07:56:37 28° WNW 08:03:16 10° WSW visible
22 Sep ? 04:58:08 10° NE 05:04:07 22° E 05:10:03 10° SE visible
22 Sep ? 06:49:04 10° N 06:57:17 67° WNW 07:05:27 10° SSW visible
23 Sep ? 05:49:22 10° NNE 05:57:24 52° ESE 06:05:22 10° S visible
23 Sep ? 07:42:46 10° N 07:49:42 31° WNW 07:56:38 10° WSW visible
24 Sep ? 04:51:34 10° NE 04:57:01 19° E 05:02:26 10° SE visible
24 Sep ? 06:42:01 10° NNE 06:50:18 75° WNW 06:58:32 10° SSW visible
25 Sep ? 05:42:28 10° NNE 05:50:21 46° ESE 05:58:11 10° S visible
25 Sep ? 07:35:35 10° N 07:42:47 34° WNW 07:49:57 10° WSW visible
26 Sep ? 04:45:07 10° ENE 04:49:54 16° E 04:54:40 10° SE visible
26 Sep ? 06:34:59 10° NNE 06:43:18 82° WNW 06:51:34 10° SSW visible
27 Sep ? 05:35:35 10° NNE 05:43:18 41° E 05:50:57 10° S visible
27 Sep ? 07:28:25 10° N 07:35:51 38° WNW 07:43:15 10° SW visible
28 Sep ? 04:38:50 10° ENE 04:42:48 14° E 04:46:43 10° ESE visible
28 Sep ? 06:27:58 10° NNE 06:36:18 90° WNW 06:44:35 10° SSW visible
